Location: ??????
(41.3164°N, 22.6615°E)
Time: 04:50:10
(UTC+00:00)

CUBEBUG 2 - Pass Details

Date: 05 July 2022
Orbit: 584 x 692 km, 97.7° (Epoch: 17 August)

Event Time Altitude Azimuth Distance (km) Brightness Sun altitude
Rises 00:33:56 0° 27° (NNE) 2,853 ? -20.1°
Reaches altitude 10° 00:36:31 10° 44° (NE) 1,960 ? -19.9°
Maximum altitude 00:39:48 22° 94° (E) 1,373 ? -19.6°
Enters shadow 00:42:54 11° 143° (SE) 1,922 ? -19.3°
